| time (UTC) | temp F | wind direction | speed MPH | gust MPH | rain 1hr in | rain 24hr in | rain mn in | humidity % | barometer mb |
| 20260504050518 | 47 | 44 | 1.0 | 3.0 | 0.00 | 0.00 | 0.00 | 61 | 1016.0 |
| 20260504045921 | 47 | 62 | 2.0 | 4.0 | 0.00 | 0.00 | 0.00 | 62 | 1016.0 |
| 20260504045314 | 47 | 52 | 1.0 | 4.0 | 0.00 | 0.00 | 0.00 | 62 | 1016.0 |
| 20260504044724 | 47 | 0 | 0.0 | 4.0 | 0.00 | 0.00 | 0.00 | 62 | 1016.0 |
| 20260504044114 | 47 | 51 | 1.0 | 4.0 | 0.00 | 0.00 | 0.00 | 62 | 1016.0 |
| 20260504043513 | 47 | 52 | 1.0 | 2.0 | 0.00 | 0.00 | 0.00 | 63 | 1015.9 |
| 20260504042917 | 47 | 49 | 1.0 | 2.0 | 0.00 | 0.00 | 0.00 | 62 | 1015.8 |
| 20260504042317 | 47 | 0 | 0.0 | 0.0 | 0.00 | 0.00 | 0.00 | 63 | 1015.8 |
| 20260504041714 | 47 | 0 | 0.0 | 3.0 | 0.00 | 0.00 | 0.00 | 62 | 1015.7 |
| 20260504041114 | 47 | 0 | 0.0 | 3.0 | 0.00 | 0.00 | 0.00 | 62 | 1015.7 |
| 20260504040519 | 47 | 67 | 1.0 | 3.0 | 0.00 | 0.00 | 0.00 | 61 | 1015.6 |
| 20260504035921 | 48 | 68 | 1.0 | 4.0 | 0.00 | 0.00 | 0.00 | 61 | 1015.6 |
| 20260504035317 | 48 | 74 | 2.0 | 5.0 | 0.00 | 0.00 | 0.00 | 60 | 1015.7 |
| 20260504034722 | 48 | 73 | 2.0 | 5.0 | 0.00 | 0.00 | 0.00 | 60 | 1015.6 |
| 20260504034114 | 48 | 71 | 2.0 | 5.0 | 0.00 | 0.00 | 0.00 | 60 | 1015.6 |
| 20260504033517 | 48 | 74 | 3.0 | 5.0 | 0.00 | 0.00 | 0.00 | 60 | 1015.6 |
| 20260504032919 | 48 | 72 | 2.0 | 5.0 | 0.00 | 0.00 | 0.00 | 60 | 1015.5 |
| 20260504032317 | 48 | 73 | 2.0 | 5.0 | 0.00 | 0.00 | 0.00 | 59 | 1015.4 |
| 20260504031720 | 48 | 79 | 3.0 | 5.0 | 0.00 | 0.00 | 0.00 | 59 | 1015.3 |
| 20260504031114 | 48 | 63 | 1.0 | 3.0 | 0.00 | 0.00 | 0.00 | 60 | 1015.3 |
| 20260504030519 | 48 | 67 | 1.0 | 4.0 | 0.00 | 0.00 | 0.00 | 59 | 1015.3 |
| 20260504025919 | 49 | 69 | 1.0 | 5.0 | 0.00 | 0.00 | 0.00 | 58 | 1015.3 |
| 20260504025317 | 49 | 72 | 2.0 | 4.0 | 0.00 | 0.00 | 0.00 | 57 | 1015.2 |
| 20260504024725 | 49 | 59 | 1.0 | 3.0 | 0.00 | 0.00 | 0.00 | 58 | 1015.2 |
| 20260504024113 | 49 | 63 | 2.0 | 3.0 | 0.00 | 0.00 | 0.00 | 57 | 1015.2 |
| 20260504023513 | 50 | 63 | 1.0 | 4.0 | 0.00 | 0.00 | 0.00 | 56 | 1015.3 |
| 20260504022915 | 50 | 66 | 1.0 | 3.0 | 0.00 | 0.00 | 0.00 | 56 | 1015.3 |
| 20260504022315 | 50 | 68 | 2.0 | 4.0 | 0.00 | 0.00 | 0.00 | 54 | 1015.4 |
| 20260504021720 | 51 | 70 | 2.0 | 5.0 | 0.00 | 0.00 | 0.00 | 53 | 1015.4 |
| 20260504021114 | 51 | 74 | 3.0 | 5.0 | 0.00 | 0.00 | 0.00 | 53 | 1015.3 |
| 20260504020520 | 51 | 71 | 1.0 | 4.0 | 0.00 | 0.00 | 0.00 | 54 | 1015.4 |
| 20260504015920 | 51 | 71 | 2.0 | 4.0 | 0.00 | 0.00 | 0.00 | 52 | 1015.4 |
| 20260504015316 | 51 | 68 | 2.0 | 5.0 | 0.00 | 0.00 | 0.00 | 52 | 1015.3 |
| 20260504014726 | 51 | 72 | 2.0 | 4.0 | 0.00 | 0.00 | 0.00 | 52 | 1015.2 |
| 20260504014124 | 52 | 74 | 3.0 | 4.0 | 0.00 | 0.00 | 0.00 | 51 | 1015.1 |
| 20260504013518 | 52 | 66 | 2.0 | 3.0 | 0.00 | 0.00 | 0.00 | 51 | 1015.1 |
| 20260504012918 | 51 | 63 | 1.0 | 3.0 | 0.00 | 0.00 | 0.00 | 52 | 1015.0 |
| 20260504012313 | 52 | 0 | 0.0 | 0.0 | 0.00 | 0.00 | 0.00 | 53 | 1015.0 |
| 20260504011716 | 52 | 0 | 0.0 | 2.0 | 0.00 | 0.00 | 0.00 | 53 | 1015.0 |
| 20260504011119 | 52 | 0 | 0.0 | 2.0 | 0.00 | 0.00 | 0.00 | 50 | 1014.9 |
| 20260504010518 | 53 | 64 | 1.0 | 4.0 | 0.00 | 0.00 | 0.00 | 49 | 1014.9 |
| 20260504005920 | 53 | 65 | 1.0 | 2.0 | 0.00 | 0.00 | 0.00 | 50 | 1014.8 |
| 20260504005314 | 53 | 69 | 1.0 | 6.0 | 0.00 | 0.00 | 0.00 | 49 | 1014.8 |
| 20260504004715 | 54 | 75 | 2.0 | 7.0 | 0.00 | 0.00 | 0.00 | 48 | 1014.8 |
| 20260504004113 | 54 | 78 | 3.0 | 8.0 | 0.00 | 0.00 | 0.00 | 47 | 1014.7 |
| 20260504003518 | 54 | 79 | 3.0 | 6.0 | 0.00 | 0.00 | 0.00 | 47 | 1014.6 |
| 20260504002916 | 54 | 76 | 2.0 | 6.0 | 0.00 | 0.00 | 0.00 | 46 | 1014.5 |
| 20260504002313 | 55 | 78 | 2.0 | 6.0 | 0.00 | 0.00 | 0.00 | 46 | 1014.4 |
| 20260504001717 | 55 | 72 | 2.0 | 5.0 | 0.00 | 0.00 | 0.00 | 45 | 1014.3 |
| 20260504001114 | 56 | 85 | 3.0 | 7.0 | 0.00 | 0.00 | 0.00 | 44 | 1014.3 |
| 20260504000521 | 56 | 85 | 4.0 | 7.0 | 0.00 | 0.00 | 0.00 | 43 | 1014.2 |
| 20260503235927 | 56 | 85 | 3.0 | 9.0 | 0.00 | 0.00 | 0.00 | 42 | 1014.1 |
| 20260503235314 | 57 | 79 | 3.0 | 8.0 | 0.00 | 0.00 | 0.00 | 42 | 1014.0 |
| 20260503234724 | 57 | 82 | 3.0 | 9.0 | 0.00 | 0.00 | 0.00 | 42 | 1014.0 |
| 20260503234114 | 58 | 72 | 1.0 | 10.0 | 0.00 | 0.00 | 0.00 | 41 | 1013.9 |
| 20260503233519 | 58 | 89 | 3.0 | 10.0 | 0.00 | 0.00 | 0.00 | 40 | 1013.9 |
| 20260503232916 | 58 | 92 | 4.0 | 10.0 | 0.00 | 0.00 | 0.00 | 40 | 1013.9 |
| 20260503232314 | 58 | 97 | 2.0 | 13.0 | 0.00 | 0.00 | 0.00 | 40 | 1013.9 |
| 20260503231714 | 58 | 95 | 5.0 | 16.0 | 0.00 | 0.00 | 0.00 | 40 | 1013.9 |
| 20260503231120 | 58 | 97 | 3.0 | 10.0 | 0.00 | 0.00 | 0.00 | 40 | 1013.9 |
| 20260503230519 | 58 | 108 | 4.0 | 14.0 | 0.00 | 0.00 | 0.00 | 40 | 1013.9 |
| 20260503225918 | 58 | 94 | 5.0 | 15.0 | 0.00 | 0.00 | 0.00 | 39 | 1013.8 |
| 20260503225313 | 59 | 96 | 6.0 | 16.0 | 0.00 | 0.00 | 0.00 | 39 | 1013.7 |
| 20260503224721 | 59 | 98 | 9.0 | 16.0 | 0.00 | 0.00 | 0.00 | 39 | 1013.8 |
| 20260503224114 | 59 | 124 | 6.0 | 11.0 | 0.00 | 0.00 | 0.00 | 38 | 1013.8 |
| 20260503223513 | 59 | 97 | 5.0 | 14.0 | 0.00 | 0.00 | 0.00 | 39 | 1013.8 |
| 20260503222914 | 60 | 92 | 6.0 | 14.0 | 0.00 | 0.00 | 0.00 | 39 | 1013.8 |
| 20260503222314 | 60 | 116 | 5.0 | 12.0 | 0.00 | 0.00 | 0.00 | 39 | 1013.8 |
| 20260503221713 | 60 | 120 | 4.0 | 19.0 | 0.00 | 0.00 | 0.00 | 39 | 1013.8 |
| 20260503221113 | 60 | 102 | 6.0 | 15.0 | 0.00 | 0.00 | 0.00 | 38 | 1013.8 |
| 20260503220515 | 60 | 105 | 6.0 | 13.0 | 0.00 | 0.00 | 0.00 | 38 | 1013.8 |
| 20260503215916 | 60 | 153 | 6.0 | 13.0 | 0.00 | 0.00 | 0.00 | 38 | 1013.8 |
| 20260503215313 | 59 | 157 | 5.0 | 16.0 | 0.00 | 0.00 | 0.00 | 39 | 1013.8 |
| 20260503214722 | 59 | 97 | 9.0 | 16.0 | 0.00 | 0.00 | 0.00 | 38 | 1013.8 |
| 20260503214113 | 59 | 96 | 9.0 | 18.0 | 0.00 | 0.00 | 0.00 | 39 | 1013.8 |
| 20260503213528 | 59 | 119 | 8.0 | 18.0 | 0.00 | 0.00 | 0.00 | 39 | 1013.8 |
| 20260503212915 | 58 | 89 | 4.0 | 16.0 | 0.00 | 0.00 | 0.00 | 39 | 1013.8 |
| 20260503212327 | 59 | 101 | 8.0 | 22.0 | 0.00 | 0.00 | 0.00 | 39 | 1013.8 |
| 20260503211713 | 60 | 111 | 8.0 | 20.0 | 0.00 | 0.00 | 0.00 | 39 | 1013.7 |
| 20260503211115 | 59 | 170 | 8.0 | 14.0 | 0.00 | 0.00 | 0.00 | 38 | 1013.6 |
| 20260503210519 | 59 | 88 | 5.0 | 15.0 | 0.00 | 0.00 | 0.00 | 39 | 1013.7 |
| 20260503205919 | 59 | 122 | 5.0 | 15.0 | 0.00 | 0.00 | 0.00 | 39 | 1013.8 |
| 20260503205315 | 59 | 112 | 5.0 | 13.0 | 0.00 | 0.00 | 0.00 | 39 | 1013.8 |
| 20260503204713 | 59 | 136 | 5.0 | 14.0 | 0.00 | 0.00 | 0.00 | 37 | 1013.8 |
| 20260503204113 | 59 | 160 | 8.0 | 14.0 | 0.00 | 0.00 | 0.00 | 38 | 1013.8 |
| 20260503203520 | 59 | 145 | 6.0 | 21.0 | 0.00 | 0.00 | 0.00 | 40 | 1013.9 |
| 20260503202923 | 59 | 118 | 8.0 | 23.0 | 0.00 | 0.00 | 0.00 | 38 | 1013.9 |
| 20260503202313 | 58 | 94 | 8.0 | 19.0 | 0.00 | 0.00 | 0.00 | 41 | 1013.9 |
| 20260503201715 | 58 | 171 | 9.0 | 19.0 | 0.00 | 0.00 | 0.00 | 37 | 1014.0 |
| 20260503201114 | 59 | 134 | 7.0 | 16.0 | 0.00 | 0.00 | 0.00 | 38 | 1014.1 |
| 20260503200518 | 58 | 112 | 7.0 | 16.0 | 0.00 | 0.00 | 0.00 | 39 | 1014.2 |
| 20260503195921 | 58 | 129 | 8.0 | 17.0 | 0.00 | 0.00 | 0.00 | 37 | 1014.2 |
| 20260503195313 | 59 | 135 | 8.0 | 17.0 | 0.00 | 0.00 | 0.00 | 37 | 1014.3 |
| 20260503194719 | 58 | 125 | 7.0 | 17.0 | 0.00 | 0.00 | 0.00 | 39 | 1014.3 |
| 20260503194114 | 58 | 106 | 5.0 | 17.0 | 0.00 | 0.00 | 0.00 | 41 | 1014.3 |
| 20260503193515 | 58 | 152 | 9.0 | 17.0 | 0.00 | 0.00 | 0.00 | 36 | 1014.6 |
| 20260503192913 | 58 | 96 | 10.0 | 17.0 | 0.00 | 0.00 | 0.00 | 40 | 1014.6 |
| 20260503192314 | 57 | 132 | 8.0 | 17.0 | 0.00 | 0.00 | 0.00 | 38 | 1014.7 |
| 20260503191713 | 57 | 101 | 9.0 | 20.0 | 0.00 | 0.00 | 0.00 | 41 | 1014.8 |
| 20260503191114 | 57 | 123 | 7.0 | 20.0 | 0.00 | 0.00 | 0.00 | 40 | 1014.9 |
| 20260503190515 | 57 | 167 | 8.0 | 19.0 | 0.00 | 0.00 | 0.00 | 41 | 1014.8 |
| 20260503185914 | 57 | 144 | 8.0 | 20.0 | 0.00 | 0.00 | 0.00 | 40 | 1014.9 |
| 20260503185313 | 56 | 153 | 8.0 | 19.0 | 0.00 | 0.00 | 0.00 | 43 | 1015.0 |
| 20260503184723 | 56 | 168 | 9.0 | 19.0 | 0.00 | 0.00 | 0.00 | 39 | 1015.1 |
| 20260503184113 | 56 | 107 | 9.0 | 16.0 | 0.00 | 0.00 | 0.00 | 43 | 1015.1 |
| 20260503183519 | 56 | 118 | 10.0 | 19.0 | 0.00 | 0.00 | 0.00 | 42 | 1015.2 |
| 20260503182919 | 55 | 136 | 8.0 | 21.0 | 0.00 | 0.00 | 0.00 | 43 | 1015.3 |
| 20260503182316 | 55 | 122 | 7.0 | 17.0 | 0.00 | 0.00 | 0.00 | 44 | 1015.3 |
| 20260503181723 | 55 | 152 | 9.0 | 17.0 | 0.00 | 0.00 | 0.00 | 40 | 1015.2 |
| 20260503181115 | 56 | 145 | 9.0 | 14.0 | 0.00 | 0.00 | 0.00 | 41 | 1015.3 |
| 20260503180528 | 55 | 152 | 7.0 | 15.0 | 0.00 | 0.00 | 0.00 | 41 | 1015.3 |
| 20260503175913 | 55 | 115 | 9.0 | 19.0 | 0.00 | 0.00 | 0.00 | 44 | 1015.4 |
| 20260503175315 | 54 | 113 | 7.0 | 20.0 | 0.00 | 0.00 | 0.00 | 43 | 1015.4 |
| 20260503174713 | 54 | 166 | 9.0 | 20.0 | 0.00 | 0.00 | 0.00 | 42 | 1015.4 |
| 20260503174113 | 54 | 143 | 5.0 | 18.0 | 0.00 | 0.00 | 0.00 | 44 | 1015.4 |
| 20260503173518 | 54 | 174 | 8.0 | 18.0 | 0.00 | 0.00 | 0.00 | 42 | 1015.5 |
| 20260503172913 | 54 | 144 | 6.0 | 16.0 | 0.00 | 0.00 | 0.00 | 44 | 1015.5 |
| 20260503172313 | 53 | 153 | 7.0 | 16.0 | 0.00 | 0.00 | 0.00 | 42 | 1015.5 |
| 20260503171717 | 53 | 146 | 7.0 | 13.0 | 0.00 | 0.00 | 0.00 | 41 | 1015.6 |
| 20260503171120 | 53 | 195 | 5.0 | 18.0 | 0.00 | 0.00 | 0.00 | 42 | 1015.6 |
| 20260503170515 | 53 | 150 | 8.0 | 18.0 | 0.00 | 0.00 | 0.00 | 43 | 1015.7 |
| 20260503150519 | 49 | 156 | 11.0 | 17.0 | 0.00 | 0.00 | 0.00 | 51 | 1016.6 |
| 20260503131114 | 45 | 168 | 4.0 | 15.0 | 0.00 | 0.00 | 0.00 | 64 | 1016.6 |
| 20260503130524 | 45 | 148 | 8.0 | 15.0 | 0.00 | 0.00 | 0.00 | 63 | 1016.5 |
| 20260503110514 | 42 | 246 | 1.0 | 5.0 | 0.00 | 0.00 | 0.00 | 74 | 1015.6 |
| 20260503081128 | 0 | 0.0 | 0.0 | 0.00 | 0.00 | 0.00 | 1013.9 | ||
| 20260503080523 | 0 | 0.0 | 0.0 | 0.00 | 0.00 | 0.00 | 1013.9 |